Location: Navarre
(52.9016°N, 113.4144°W)
Time: 04:42:48
(UTC+00:00)

Envisat - Pass Details

Date: 01 December 2023
Orbit: 762 x 764 km, 98.3° (Epoch: 22 February)

Event Time Altitude Azimuth Distance (km) Brightness Sun altitude
Rises 12:25:44 0° 9° (N) 3,245 6.3 -25.7°
Reaches altitude 10° 12:28:14 10° 1° (N) 2,315 5.4 -25.3°
Enters shadow 12:29:15 15° 354° (N) 1,969 5.0 -25.2°
